Location: Unspecified
(33.6682°S, 0.0000°E)
Time: 16:30:30
(UTC+00:00)

A-11 Canister half - Visible Passes

Search period start: 16 June 2019 00:00
Search period end: 26 June 2019 00:00
Orbit: 1516 x 1684 km, 47.2° (Epoch: 15 June)

Date Brightness Start Highest point End Pass type
(mag) Time Alt. Az. Time Alt. Az. Time Alt. Az.
16 Jun 10.2 03:13:03 32° SSE 03:13:03 32° SSE 03:19:23 10° ESE visible
16 Jun 9.6 05:11:15 25° SW 05:17:19 52° SSE 05:27:12 10° E visible
17 Jun 10.5 02:51:26 27° SE 02:51:26 27° SE 02:56:18 10° ESE visible
17 Jun 9.6 04:49:38 32° SSW 04:54:17 50° SSE 05:04:06 10° E visible
18 Jun 10.7 02:29:51 21° SE 02:29:51 21° SE 02:33:13 10° ESE visible
18 Jun 9.6 04:28:03 38° SSW 04:31:15 48° SSE 04:41:00 10° E visible
18 Jun 9.3 06:26:50 10° SW 06:36:56 76° NW 06:47:05 10° NE visible
19 Jun 11.0 02:08:18 16° SE 02:08:18 16° SE 02:10:08 10° ESE visible
19 Jun 9.6 04:06:29 43° S 04:08:13 47° SSE 04:17:54 10° E visible
19 Jun 9.2 06:04:42 13° SW 06:13:59 80° NW 06:24:11 10° NE visible
20 Jun 11.3 01:46:45 11° ESE 01:46:45 11° ESE 01:47:05 10° ESE visible
20 Jun 9.6 03:44:57 45° SSE 03:45:10 45° SSE 03:54:47 10° E visible
20 Jun 9.2 05:43:10 19° SW 05:51:03 84° NW 06:01:15 10° NE visible
20 Jun 11.0 20:55:30 10° NNW 20:55:32 10° NNW 20:55:32 10° NNW visible
21 Jun 9.8 03:23:27 42° SE 03:23:27 42° SE 03:31:40 10° E visible
21 Jun 9.1 05:21:40 27° SW 05:28:05 88° NW 05:38:19 10° NE visible
21 Jun 10.7 20:32:50 10° NNW 20:34:18 15° N 20:34:18 15° N visible
22 Jun 10.1 03:01:59 36° SE 03:01:59 36° SE 03:08:33 10° E visible
22 Jun 9.1 05:00:12 36° SW 05:05:08 88° SE 05:15:22 10° NE visible
22 Jun 10.4 20:10:12 10° N 20:13:05 20° N 20:13:05 20° N visible
23 Jun 10.5 02:40:34 28° ESE 02:40:34 28° ESE 02:45:26 10° E visible
23 Jun 9.0 04:38:46 49° SW 04:42:11 84° SE 04:52:24 10° NE visible
23 Jun 10.0 06:38:10 10° WSW 06:46:33 31° NW 06:55:01 10° N visible
23 Jun 10.1 19:47:37 10° N 19:51:54 24° NNE 19:51:54 24° NNE visible
24 Jun 10.8 02:19:10 21° ESE 02:19:10 21° ESE 02:22:19 10° E visible
24 Jun 9.0 04:17:24 65° SW 04:19:13 81° SE 04:29:25 10° ENE visible
24 Jun 9.9 06:15:36 12° WSW 06:23:40 33° NW 06:32:22 10° N visible
24 Jun 9.9 19:25:02 10° N 19:30:43 27° NE 19:30:43 27° NE visible
24 Jun 10.8 21:27:18 10° NW 21:28:58 17° NW 21:28:58 17° NW visible
25 Jun 11.1 01:57:49 15° ESE 01:57:49 15° ESE 01:59:11 10° E visible
25 Jun 9.0 03:56:03 77° SSE 03:56:15 77° SE 04:06:26 10° ENE visible
25 Jun 9.8 05:54:16 18° WSW 06:00:47 36° NW 06:09:41 10° N visible
25 Jun 9.9 19:02:30 10° N 19:09:33 26° NE 19:09:33 26° NE visible
25 Jun 10.4 21:04:24 10° NW 21:07:47 26° NW 21:07:47 26° NW visible
